Location: Cherry Springs State Park
(41.6616°N, 77.8240°W)
Time: 03:47:10
(UTC-04:00)

Daily predictions for brighter satellites

Satellite Brightness Start Highest point End
(mag) Time Altitude Azimuth Time Altitude Azimuth Time Altitude Azimuth
Cosmos 2219 Rocket 3.3 00:00:03 10° NW 00:04:59 32° WSW 00:06:29 28° SW
NOSS 2-3 (C) 4.2 00:09:54 51° ESE 00:09:54 51° ESE 00:15:08 10° NE
Cosmos 2184 Rocket 4.3 00:08:33 42° SE 00:09:56 50° E 00:15:52 10° NNE
CZ-4B R/B 3.2 00:10:33 26° NE 00:10:33 26° NE 00:13:01 10° NNE
Cosmos 1125 Rocket 3.5 00:10:02 51° SSW 00:11:23 83° WNW 00:16:45 10° NNE
Meteor 1-26 Rocket 4.2 00:06:51 10° N 00:12:29 74° E 00:13:42 55° SE
Cosmos 1048 Rocket 4.0 00:07:23 10° NNW 00:12:47 85° ENE 00:13:46 61° SSE
SeaSat 1 2.3 00:12:26 63° SE 00:13:14 84° ENE 00:18:12 10° NNW
Lacrosse 4 Rocket 1.4 00:20:13 10° NNW 00:24:39 88° WNW 00:24:39 88° WNW
NOSS 2-3 (D) 3.8 00:30:30 71° SSE 00:30:49 74° ESE 00:36:25 10° NE
ASTEX 1 3.6 00:26:13 10° NNE 00:31:01 54° E 00:31:11 54° ESE
Cosmos 2237 Rocket 3.4 00:30:15 10° NW 00:35:02 28° WSW 00:36:00 27° WSW
Aureole 2 Rocket 3.9 00:32:35 10° N 00:34:34 32° NNE 00:34:34 32° NNE
Cosmos 1869 Rocket 4.3 00:39:09 44° W 00:39:38 45° WNW 00:43:57 10° N
Cosmos 372 Rocket 4.0 00:40:24 61° SW 00:41:16 77° WNW 00:46:33 10° NNE
Cosmos 1733 Rocket 3.6 00:41:41 47° ENE 00:41:41 47° ENE 00:45:39 10° NNE
Cosmos 158 Rocket 3.9 00:36:10 10° NNW 00:41:30 79° ENE 00:42:06 68° SE
Meteor 2-3 Rocket 3.7 00:41:29 61° S 00:42:34 90° WNW 00:48:20 10° N
Landsat 5 3.7 00:42:33 67° E 00:42:36 67° ENE 00:47:07 10° N
Cosmos 1892 3.6 00:44:30 42° NE 00:44:30 42° NE 00:47:18 10° NNE
CZ-4C R/B 4.1 00:44:58 42° NW 00:44:58 42° NW 00:47:33 10° NNW
Cosmos 44 4.2 00:48:37 40° E 00:48:37 40° E 00:53:15 10° NE
ALOS 2 2.6 00:48:22 77° WNW 00:48:22 77° WNW 00:52:35 10° NNW
COSMOS 2455 3.1 00:43:02 10° NW 00:48:50 50° WSW 00:49:34 48° SW
H-2A R/B 2.5 00:45:48 10° N 00:49:51 78° NW 00:49:51 78° NW
Coronas F rocket 4.4 00:57:50 15° NNE 00:57:50 15° NNE 00:58:29 10° NNE
ATLAS 2AS CENTAUR R/B 3.9 00:51:29 10° WSW 00:58:46 47° NW 01:06:33 10° NNE
Cosmos 1825 4.1 01:10:18 22° ENE 01:10:18 22° ENE 01:12:36 10° NE
Helios 1A Rocket 3.1 01:08:07 10° NNE 01:11:55 72° N 01:11:55 72° N
Cosmos 1782 3.2 01:10:40 10° N 01:14:00 60° NNE 01:14:00 60° NNE
Cosmos 1610 Rocket 4.5 01:13:49 53° SW 01:15:12 71° W 01:21:21 10° N
Nadezhda 3 Rocket 3.9 01:09:05 10° N 01:15:19 82° E 01:16:43 57° SSE
ATLAS 3B R/B 3.2 01:10:23 10° NW 01:16:38 38° WSW 01:17:16 37° SW
Cosmos 2251 Rocket 3.5 01:13:48 10° NNW 01:19:05 65° WSW 01:19:20 64° WSW
Cosmos 2263 Rocket 3.2 01:19:12 31° ESE 01:19:30 31° ESE 01:24:26 10° NE
Cosmos 1340 Rocket 3.5 01:21:31 47° NW 01:21:31 47° NW 01:24:48 10° N
Geosat 3.9 01:16:30 10° NNE 01:21:34 83° WNW 01:22:08 71° SW
Cosmos 44 Rocket 4.2 01:21:05 36° W 01:22:41 48° NW 01:27:46 10° NNE
CZ-2C R/B 3.7 01:21:36 43° ESE 01:23:10 56° ENE 01:28:40 10° N
USA 238 DEB 3.7 01:17:05 10° NW 01:24:06 72° WSW 01:25:50 52° S
USA 238 3.7 01:17:11 10° NW 01:24:12 73° WSW 01:25:57 52° S
GEOS 3 Rocket 4.4 01:27:38 36° WSW 01:27:38 36° WSW 01:31:53 10° NW
SL-16 R/B 3.6 01:23:15 10° NW 01:27:39 23° WSW 01:27:44 23° WSW
Cosmos 1674 Rocket 3.8 01:25:49 10° NNW 01:29:52 60° WNW 01:29:52 60° WNW
RESURS DK-1 4.3 01:36:20 20° E 01:36:20 20° E 01:38:37 10° NE
Cosmos 1607 3.8 01:30:48 10° NW 01:36:58 83° WSW 01:38:19 57° SSE
Cosmos 921 Rocket 3.1 01:38:18 66° NNW 01:38:18 66° NNW 01:42:09 10° NNE
PSLV R/B 4.3 01:39:15 57° ENE 01:39:15 57° ENE 01:43:07 10° N
CZ-4C R/B 2.9 01:32:15 10° NNW 01:39:22 79° NE 01:43:31 31° SE
Meteor 2-10 Rocket 4.3 01:34:51 10° NNW 01:40:06 42° W 01:40:45 41° WSW
Cosmos 1975 Rocket 3.5 01:35:55 10° N 01:40:13 52° E 01:40:19 52° E
Cosmos 2084 Rocket 4.2 01:41:26 41° NW 01:41:26 41° NW 01:44:59 10° NNE
CZ-4B R/B 4.0 01:44:19 14° WNW 01:44:19 14° WNW 01:45:16 10° NW
Cosmos 2154 Rocket 4.2 01:41:41 47° SW 01:43:15 61° W 01:49:30 10° N
Meteor 1-27 Rocket 3.7 01:37:52 10° N 01:43:46 85° W 01:44:47 62° S
CZ-2C R/B 2.5 01:40:17 10° N 01:45:30 70° WNW 01:46:13 61° WSW
Cosmos 1908 Rocket 3.6 01:47:05 69° WNW 01:47:05 69° WNW 01:51:12 10° N
USA 234 4.2 01:41:01 10° ESE 01:47:12 47° NNE 01:53:25 10° NW
Cosmos 494 Rocket 4.3 01:44:51 10° NNW 01:49:56 50° WSW 01:49:59 50° WSW
Cosmos 1943 3.1 01:46:19 10° NNW 01:52:02 88° ENE 01:53:14 58° SSE
Cosmos 1295 Rocket 4.4 01:52:21 55° S 01:53:55 89° W 02:00:18 10° N
Cosmos 1862 3.6 01:58:08 60° NW 01:58:08 60° NW 02:01:42 10° N
NOSS 3-2 (C) 4.1 01:50:20 10° NNW 01:57:51 75° NE 02:03:51 20° SE
Cosmos 1606 3.7 01:58:35 10° NNW 02:01:27 38° WNW 02:01:27 38° WNW
Cosmos 1238 Rocket 4.1 02:07:34 10° NNW 02:10:17 28° WNW 02:10:17 28° WNW
Cosmos 2151 Rocket 4.2 02:12:10 43° ESE 02:12:37 45° E 02:16:52 10° NNE
H-2A R/B 4.5 00:45:58 10° W 02:13:56 38° SW 02:17:25 33° SSW
NOSS 3-4 (A) 3.5 02:17:55 44° SW 02:20:06 81° NW 02:26:44 10° NNE
NOSS 3-4 (C) 3.5 02:18:01 45° SW 02:20:12 82° NW 02:26:49 10° NE
SL-08 R/B 4.4 02:18:53 50° SSW 02:20:40 82° W 02:27:00 10° N
Okean 3 4.1 02:16:34 10° NNW 02:20:24 45° W 02:20:24 45° W
NOSS 3-2 (A) 3.9 02:14:01 10° NW 02:21:30 72° WSW 02:25:29 33° SSE
SL-8 Rocket 4.3 02:30:12 40° SW 02:32:07 54° WNW 02:38:19 10° N
Cosmos 1371 Rocket 4.0 02:37:07 52° SW 02:38:26 79° WNW 02:43:50 10° NNE
CRYOSAT 2 4.2 02:34:01 10° N 02:38:54 90° W 02:39:55 57° S
BREEZE-M DEB (TANK) 3.7 02:29:03 10° WNW 02:39:34 60° SW 02:40:42 46° SSE
Cosmos 2056 Rocket 3.5 02:38:19 52° S 02:39:37 80° ESE 02:44:53 10° NNE
Cosmos 1408 4.3 02:39:55 24° WNW 02:39:55 24° WNW 02:42:48 10° NNW
Cosmos 1339 Rocket 4.3 02:33:40 10° N 02:39:47 90° WSW 02:42:10 40° S
Cosmos 2218 Rocket 4.3 02:37:59 40° SW 02:39:59 57° W 02:46:13 10° N
GP-B 4.3 02:37:32 10° NNE 02:41:38 36° E 02:43:18 26° SE
ERS-2 3.3 02:41:06 10° NNE 02:44:31 34° E 02:44:57 33° ESE
Cosmos 1825 4.0 02:45:14 21° WNW 02:45:14 21° WNW 02:48:03 10° NNW
Meteor 2-19 Rocket 4.4 02:43:48 42° S 02:46:03 88° W 02:52:16 10° N
Cosmos 407 Rocket 3.9 02:41:26 10° NNW 02:46:33 60° ENE 02:49:43 23° SE
CZ-2D R/B 4.5 02:44:10 10° NE 02:47:20 15° E 02:50:29 10° SE
Cosmos 1812 3.4 02:44:49 10° N 02:48:36 48° E 02:49:35 38° ESE
Okean 2 Rocket 4.3 02:51:20 28° W 02:51:54 29° WNW 02:55:51 10° NNW
Cosmos 2366 rocket 4.4 02:53:00 36° SW 02:55:05 49° WNW 03:01:05 10° N
Cosmos 1844 Rocket 3.4 02:58:18 29° SSE 03:00:41 46° ESE 03:06:05 10° NE
Okean 1 3.6 02:58:34 10° N 03:02:33 63° E 03:03:47 40° SE
Cosmos 2263 Rocket 3.1 03:00:53 27° WSW 03:03:17 39° WNW 03:08:36 10° N
SL-27 R/B 3.0 02:59:42 10° NNW 03:03:20 60° ENE 03:04:27 39° SE
Cosmos 909 Rocket 4.2 03:01:27 34° SW 03:04:27 75° WNW 03:11:54 10° NNE
IRS-1C 4.4 03:01:36 10° NNE 03:06:54 60° E 03:09:25 30° S
RESURS DK-1 3.5 03:12:15 29° W 03:13:20 34° WNW 03:17:08 10° N
SL-24 DEB 4.2 03:09:28 10° N 03:14:08 81° W 03:15:46 41° SSW
Abrixas rocket 3.0 03:16:30 37° WNW 03:17:24 49° NNW 03:20:41 10° NE
COSMOS 2406 3.1 03:12:53 10° NNW 03:18:40 74° WSW 03:22:28 22° SSE
Cosmos 1867 4.3 03:14:40 10° NW 03:19:29 32° WSW 03:19:56 31° WSW
Cosmos 1300 Rocket 3.4 03:18:47 44° SSW 03:20:07 81° W 03:24:31 10° N
Cosmos 1954 Rocket 4.2 03:16:30 10° NNW 03:21:41 71° ENE 03:26:30 12° SSE
IRS-P3 4.3 03:16:52 10° N 03:22:07 58° WNW 03:24:25 32° SW
CBERS 1 LM4 rocket 4.4 03:17:13 10° NNE 03:22:10 77° ESE 03:24:23 32° S
Cosmos 2278 Rocket 3.4 03:18:50 17° SSE 03:22:22 34° ESE 03:27:26 10° NE
Meteor 1-25 Rocket 4.4 03:20:05 34° SW 03:22:32 61° WNW 03:28:17 10° N
USA 161 2.5 03:23:19 31° ESE 03:24:11 42° ENE 03:26:59 10° N
ATLAS 5 CENTAUR R/B 4.1 03:19:04 10° NNW 03:24:26 34° NE 03:30:08 10° ESE
Iridium 4 Rocket 4.1 03:20:45 10° NNW 03:25:01 36° W 03:26:21 30° WSW
CZ-4C R/B 3.9 03:21:54 10° WNW 03:27:29 24° WSW 03:28:37 23° WSW
Cosmos 1242 Rocket 4.3 03:24:56 10° NW 03:26:54 19° WNW 03:26:54 19° WNW
USA 234 3.2 03:23:41 10° SSE 03:30:06 58° SW 03:36:33 10° NW
Resurs 1-4 Rocket 3.2 03:27:23 10° NNE 03:32:20 38° E 03:36:39 13° SSE
SL-08 R/B 3.7 03:32:29 32° SSW 03:34:22 48° W 03:39:08 10° NNW
Cosmos 1602 3.9 03:34:37 31° S 03:36:18 68° E 03:40:08 10° NNE
ATLAS 2A CENTAUR R/B 4.0 03:38:20 24° SSW 03:41:58 32° SSE 04:06:07 10° ESE
CENTAUR R/B 3.1 03:35:54 10° NW 03:43:47 87° SW 03:52:07 10° SSE
ARIANE 5 R/B 2.7 03:39:44 10° NNE 03:44:44 67° ESE 03:48:13 20° S
Cosmos 1452 Rocket 3.7 03:42:56 28° SW 03:45:40 62° WNW 03:50:54 10° NNE
Cosmos 1934 Rocket 3.9 03:42:15 23° SSW 03:46:20 78° W 03:52:32 10° N
Meteor 2-4 Rocket 4.2 03:41:00 10° N 03:46:20 56° ENE 03:51:34 10° SSE
Cosmos 1633 3.0 03:48:47 22° SSE 03:50:54 58° E 03:54:29 10° NNE
ADEOS 3.7 03:46:23 10° N 03:51:34 64° WNW 03:54:43 24° SSW
Okean 1-7 Rocket 4.2 03:51:31 10° NNW 03:55:49 40° W 03:57:55 25° SW
Cosmos 1023 Rocket 4.4 03:50:47 10° NNW 03:55:54 87° WSW 04:00:59 10° SSE
Cosmos 1420 Rocket 4.0 03:53:20 22° SSW 03:56:51 86° ESE 04:02:11 10° NNE
Cosmos 1536 2.8 03:57:35 23° S 04:00:05 87° W 04:04:11 10° N
Okean 1 Rocket 4.0 03:59:23 23° WSW 04:01:19 33° WNW 04:05:22 10° N
COSMOS 2487 2.5 03:57:42 10° NNW 04:01:20 86° ENE 04:04:56 10° SSE
SME Rocket 3.0 04:00:02 10° SSE 04:03:44 74° ENE 04:07:52 10° NNW
UNKNOWN OBJECT B 3.6 04:00:52 10° NNE 04:04:52 50° E 04:08:33 12° S
Cosmos 1461 3.3 04:04:34 21° SSW 04:07:42 73° ESE 04:12:20 10° NE
Okean O Rocket 3.1 04:05:30 10° NNE 04:09:24 32° E 04:13:16 10° SSE
SL-16 R/B 2.5 04:03:18 10° S 04:09:33 78° WSW 04:15:48 10° NNW
Gbstr 26 Del rocket 2.9 04:08:34 20° WSW 04:11:11 65° NNW 04:14:54 10° NE
Meteor 2-15 Rocket 4.5 04:09:10 10° NNW 04:15:16 67° W 04:21:20 10° S
Meteor 1-19 Rocket 4.4 04:09:39 10° NNW 04:15:22 60° W 04:21:06 10° S
Cosmos 1140 Rocket 3.5 04:11:17 10° NNW 04:16:19 56° WSW 04:21:18 10° S
ERS-2 4.2 04:15:41 10° NNW 04:18:03 16° WNW 04:19:48 12° W
NOSS 2-2 (D) 3.7 04:16:07 20° SW 04:18:58 66° NW 04:23:47 10° NNE
Cosmos 1605 Rocket 4.1 04:15:16 15° SSW 04:20:18 60° W 04:26:31 10° N
Cosmos 2123 Rocket 4.4 04:17:57 10° NNW 04:23:57 47° W 04:29:54 10° SSW
Cosmos 1833 Rocket 4.3 04:19:39 10° N 04:24:54 38° ENE 04:30:06 10° SE
EO 1 Del DPAF 3.6 04:21:45 12° S 04:25:10 48° W 04:28:57 10° NNW
CZ-2C R/B 4.5 04:20:48 10° SSE 04:25:27 59° ENE 04:30:10 10° N
Cosmos 1455 Rocket 3.1 04:21:54 11° S 04:26:14 89° E 04:30:42 10° N
CZ-2D R/B 2.2 04:22:28 10° N 04:27:53 70° WNW 04:33:04 11° SSW
Cosmos 1850 Rocket 4.1 04:22:52 10° NNW 04:28:00 59° WSW 04:33:10 10° S
Cosmos 1025 Rocket 3.7 04:24:05 10° NNW 04:28:01 36° W 04:31:24 13° SSW
Cosmos 1741 Rocket 4.1 04:24:37 10° NNW 04:29:49 59° WSW 04:34:57 10° S
Meteor 1-11 Rocket 4.5 04:25:35 15° SW 04:30:09 41° WNW 04:35:47 10° N
NOSS 2-2 (C) 4.2 04:30:09 15° WSW 04:33:28 48° NW 04:38:12 10° NNE
Cosmos 1400 Rocket 3.5 04:40:16 13° SW 04:43:26 37° WNW 04:47:07 10° N
Cosmos 1844 Rocket 4.0 04:39:58 10° WSW 04:44:46 28° NW 04:49:36 10° N
APEX 3.0 04:46:41 10° SSW 04:49:28 59° ESE 04:52:45 10° NNE
IRS-1D 4.4 04:45:55 10° N 04:50:26 33° WNW 04:54:53 10° SW
Cosmos 1544 Rocket 4.4 04:47:56 10° SW 04:51:53 34° WNW 04:55:55 10° N
Abrixas rocket 4.4 04:52:08 10° WNW 04:54:59 25° N 04:57:50 10° NE
USA 129 2.4 04:55:04 10° SSW 04:57:03 32° W 04:58:59 10° NNW
Cosmos 2173 Rocket 4.0 04:51:08 10° S 04:57:13 78° W 05:03:25 10° N
Cosmos 1802 Rocket 4.0 04:57:55 10° S 05:04:04 79° W 05:10:14 10° N
CZ-4B DEB 4.4 04:58:34 10° NNE 05:04:10 83° ESE 05:09:45 10° SSW
Cosmos 2297 3.8 04:59:25 10° SSW 05:05:02 68° WNW 05:10:45 10° NNE
Cosmos 2278 Rocket 3.1 05:01:13 10° WSW 05:06:23 36° WNW 05:11:35 10° N
BREEZE-M DEB (TANK) 4.0 05:02:47 10° WNW 05:06:25 24° N 05:08:26 10° ENE
CZ-4B R/B 3.2 05:03:14 10° NNE 05:07:50 88° ESE 05:12:17 10° SSW
Cosmos 2098 Rocket 4.4 05:05:28 10° SSE 05:08:37 35° E 05:12:27 10° NNE
ATLAS 5 CENTAUR R/B 2.6 05:03:34 10° NW 05:09:23 51° WSW 05:15:34 10° SSE
Cosmos 1315 Rocket 3.8 05:06:28 10° SW 05:10:10 33° WNW 05:13:51 10° N
Resurs 1-4 Rocket 3.3 05:07:32 10° N 05:12:00 28° WNW 05:16:26 10° WSW
Cosmos 1459 Rocket 4.2 05:07:04 10° SSW 05:13:18 57° W 05:19:31 10° N
